Location: Colonial Hills
(40.5656°N, 77.6119°W)
Time: 03:11:09
(UTC+00:00)

X-37B - Pass Details

Date: 30 November 2020
Orbit: 383 x 391 km, 45.1° (Epoch: 22 January)

Event Time Altitude Azimuth Distance (km) Brightness Sun altitude
Rises 22:51:44 0° 257° (WSW) 2,254 6.5 -12.6°
Reaches altitude 10° 22:53:49 10° 261° (W) 1,403 4.8 -13.0°
Maximum altitude 22:56:56 59° 342° (NNW) 448 0.8 -13.5°
Enters shadow 22:58:26 27° 53° (NE) 778 1.5 -13.8°
